| time (UTC) | temp C | wind direction | speed KPH | gust KPH | rain 1hr cm | rain 24hr cm | rain mn cm | humidity % | barometer mb |
| 20260508111525 | 3 | 351 | 0.0 | 0.0 | 0.00 | 0.00 | 0.00 | 92 | 1016.8 |
| 20260508111021 | 2 | 334 | 0.0 | 0.0 | 0.00 | 0.00 | 0.00 | 93 | 1016.8 |
| 20260508110519 | 2 | 338 | 0.0 | 0.0 | 0.00 | 0.00 | 0.00 | 93 | 1016.8 |
| 20260508110015 | 1 | 16 | 0.0 | 0.0 | 0.00 | 0.00 | 0.00 | 93 | 1016.8 |
| 20260508105510 | 1 | 16 | 0.0 | 0.0 | 0.00 | 0.00 | 0.00 | 93 | 1016.9 |
| 20260508105008 | 1 | 16 | 0.0 | 0.0 | 0.00 | 0.00 | 0.00 | 93 | 1016.6 |
| 20260508104506 | 1 | 344 | 0.0 | 0.0 | 0.00 | 0.00 | 0.00 | 93 | 1016.8 |
| 20260508104001 | 1 | 341 | 0.0 | 0.0 | 0.00 | 0.00 | 0.00 | 93 | 1016.8 |
| 20260508103458 | 1 | 340 | 0.0 | 0.0 | 0.00 | 0.00 | 0.00 | 93 | 1016.5 |
| 20260508102955 | 1 | 333 | 0.0 | 0.0 | 0.00 | 0.00 | 0.00 | 93 | 1016.6 |
| 20260508102454 | 1 | 333 | 0.0 | 0.0 | 0.00 | 0.00 | 0.00 | 92 | 1016.6 |
| 20260508101950 | 1 | 333 | 0.0 | 0.0 | 0.00 | 0.00 | 0.00 | 92 | 1016.4 |
| 20260508101448 | 1 | 319 | 0.0 | 0.0 | 0.00 | 0.00 | 0.00 | 92 | 1016.5 |
| 20260508100945 | 1 | 299 | 0.0 | 0.0 | 0.00 | 0.00 | 0.00 | 91 | 1016.3 |
| 20260508100444 | 1 | 322 | 0.0 | 0.0 | 0.00 | 0.00 | 0.00 | 91 | 1016.4 |
| 20260508095939 | 2 | 323 | 0.0 | 0.0 | 0.00 | 0.00 | 0.00 | 91 | 1016.3 |
| 20260508095437 | 1 | 322 | 0.0 | 0.0 | 0.00 | 0.00 | 0.00 | 91 | 1016.0 |
| 20260508094934 | 2 | 311 | 0.0 | 0.0 | 0.00 | 0.00 | 0.00 | 92 | 1016.1 |
| 20260508094431 | 2 | 286 | 0.0 | 0.0 | 0.00 | 0.00 | 0.00 | 93 | 1016.1 |
| 20260508093927 | 1 | 295 | 0.0 | 0.0 | 0.00 | 0.00 | 0.00 | 93 | 1016.3 |
| 20260508093425 | 1 | 313 | 0.0 | 0.0 | 0.00 | 0.00 | 0.00 | 93 | 1016.0 |
| 20260508092923 | 1 | 315 | 0.0 | 0.0 | 0.00 | 0.00 | 0.00 | 93 | 1016.1 |
| 20260508092421 | 1 | 314 | 0.0 | 0.0 | 0.00 | 0.00 | 0.00 | 92 | 1016.2 |
| 20260508091919 | 2 | 299 | 0.0 | 0.0 | 0.00 | 0.00 | 0.00 | 93 | 1016.1 |
| 20260508091415 | 1 | 300 | 0.0 | 0.0 | 0.00 | 0.00 | 0.00 | 93 | 1016.0 |
| 20260508090912 | 2 | 298 | 0.0 | 0.0 | 0.00 | 0.00 | 0.00 | 93 | 1015.9 |
| 20260508090411 | 1 | 302 | 0.0 | 0.0 | 0.00 | 0.00 | 0.00 | 93 | 1016.1 |
| 20260508085906 | 1 | 311 | 0.0 | 0.0 | 0.00 | 0.00 | 0.00 | 93 | 1016.0 |
| 20260508085403 | 1 | 311 | 0.0 | 0.0 | 0.00 | 0.00 | 0.00 | 92 | 1015.9 |
| 20260508084859 | 1 | 311 | 0.0 | 0.0 | 0.00 | 0.00 | 0.00 | 92 | 1016.1 |
| 20260508084356 | 2 | 311 | 0.0 | 0.0 | 0.00 | 0.00 | 0.00 | 91 | 1016.2 |
| 20260508083854 | 2 | 311 | 0.0 | 0.0 | 0.00 | 0.00 | 0.00 | 91 | 1015.9 |
| 20260508083352 | 2 | 311 | 0.0 | 0.0 | 0.00 | 0.00 | 0.00 | 91 | 1015.6 |
| 20260508082851 | 2 | 311 | 0.0 | 0.0 | 0.00 | 0.00 | 0.00 | 91 | 1016.1 |
| 20260508082349 | 2 | 311 | 0.0 | 0.0 | 0.00 | 0.00 | 0.00 | 92 | 1015.7 |
| 20260508081846 | 2 | 311 | 0.0 | 0.0 | 0.00 | 0.00 | 0.00 | 91 | 1015.7 |
| 20260508081342 | 2 | 311 | 0.0 | 0.0 | 0.00 | 0.00 | 0.00 | 92 | 1015.9 |
| 20260508080839 | 2 | 310 | 0.0 | 0.0 | 0.00 | 0.00 | 0.00 | 92 | 1015.7 |
| 20260508080338 | 2 | 317 | 0.0 | 0.0 | 0.00 | 0.00 | 0.00 | 93 | 1015.7 |
| 20260508075834 | 2 | 337 | 0.0 | 0.0 | 0.00 | 0.00 | 0.00 | 92 | 1016.0 |
| 20260508075331 | 2 | 338 | 0.0 | 0.0 | 0.00 | 0.00 | 0.00 | 92 | 1016.0 |
| 20260508074829 | 2 | 338 | 0.0 | 0.0 | 0.00 | 0.00 | 0.00 | 92 | 1015.5 |
| 20260508074326 | 2 | 338 | 0.0 | 0.0 | 0.00 | 0.00 | 0.00 | 91 | 1015.7 |
| 20260508073823 | 2 | 338 | 0.0 | 0.0 | 0.00 | 0.00 | 0.00 | 89 | 1015.5 |
| 20260508073321 | 2 | 338 | 0.0 | 0.0 | 0.00 | 0.00 | 0.00 | 89 | 1015.6 |
| 20260508072817 | 2 | 338 | 0.0 | 0.0 | 0.00 | 0.00 | 0.00 | 88 | 1015.5 |
| 20260508072313 | 2 | 337 | 0.0 | 0.0 | 0.00 | 0.00 | 0.00 | 87 | 1015.6 |
| 20260508071811 | 2 | 337 | 0.0 | 0.0 | 0.00 | 0.00 | 0.00 | 86 | 1015.7 |
| 20260508071309 | 3 | 337 | 0.0 | 0.0 | 0.00 | 0.00 | 0.00 | 86 | 1015.6 |
| 20260508070806 | 3 | 337 | 0.0 | 0.0 | 0.00 | 0.00 | 0.00 | 86 | 1015.7 |
| 20260508070305 | 3 | 337 | 0.0 | 0.0 | 0.00 | 0.00 | 0.00 | 84 | 1015.6 |
| 20260508065801 | 3 | 337 | 0.0 | 0.0 | 0.00 | 0.00 | 0.00 | 83 | 1015.5 |
| 20260508065259 | 3 | 338 | 0.0 | 0.0 | 0.00 | 0.00 | 0.00 | 82 | 1015.9 |
| 20260508064757 | 3 | 338 | 0.0 | 0.0 | 0.00 | 0.00 | 0.00 | 82 | 1015.6 |
| 20260508064255 | 3 | 336 | 0.0 | 0.0 | 0.00 | 0.00 | 0.00 | 81 | 1015.6 |
| 20260508063752 | 3 | 336 | 0.0 | 0.0 | 0.00 | 0.00 | 0.00 | 85 | 1015.6 |
| 20260508063250 | 3 | 336 | 0.0 | 0.0 | 0.00 | 0.00 | 0.00 | 86 | 1016.1 |
| 20260508062747 | 3 | 336 | 0.0 | 0.0 | 0.00 | 0.00 | 0.00 | 87 | 1016.1 |
| 20260508062245 | 3 | 336 | 0.0 | 0.0 | 0.00 | 0.00 | 0.00 | 86 | 1016.1 |
| 20260508061741 | 3 | 335 | 0.0 | 0.0 | 0.00 | 0.00 | 0.00 | 86 | 1016.0 |
| 20260508061238 | 3 | 335 | 0.0 | 0.0 | 0.00 | 0.00 | 0.00 | 85 | 1015.9 |
| 20260508060735 | 3 | 335 | 0.0 | 0.0 | 0.00 | 0.00 | 0.00 | 85 | 1015.9 |
| 20260508060233 | 3 | 335 | 0.0 | 0.0 | 0.00 | 0.00 | 0.00 | 84 | 1015.7 |
| 20260508055728 | 3 | 335 | 0.0 | 0.0 | 0.00 | 0.00 | 0.00 | 87 | 1016.1 |
| 20260508055225 | 4 | 335 | 0.0 | 0.0 | 0.00 | 0.00 | 0.00 | 87 | 1015.9 |
| 20260508054721 | 4 | 335 | 0.0 | 0.0 | 0.00 | 0.00 | 0.00 | 86 | 1015.9 |
| 20260508054220 | 3 | 335 | 0.0 | 0.0 | 0.00 | 0.00 | 0.00 | 84 | 1015.9 |
| 20260508053716 | 3 | 335 | 0.0 | 0.0 | 0.00 | 0.00 | 0.00 | 84 | 1015.9 |
| 20260508053214 | 3 | 335 | 0.0 | 0.0 | 0.00 | 0.00 | 0.00 | 85 | 1015.7 |
| 20260508052711 | 3 | 334 | 0.0 | 0.0 | 0.00 | 0.00 | 0.00 | 85 | 1015.9 |
| 20260508052208 | 4 | 334 | 0.0 | 0.0 | 0.00 | 0.00 | 0.00 | 84 | 1015.7 |
| 20260508051704 | 4 | 334 | 0.0 | 0.0 | 0.00 | 0.00 | 0.00 | 83 | 1015.7 |
| 20260508051159 | 4 | 334 | 0.0 | 0.0 | 0.00 | 0.00 | 0.00 | 82 | 1015.7 |
| 20260508050656 | 4 | 334 | 0.0 | 0.0 | 0.00 | 0.00 | 0.00 | 81 | 1015.7 |
| 20260508050154 | 4 | 334 | 0.0 | 0.0 | 0.00 | 0.00 | 0.00 | 80 | 1015.6 |
| 20260508045649 | 5 | 334 | 0.0 | 0.0 | 0.00 | 0.00 | 0.00 | 79 | 1015.5 |
| 20260508045147 | 5 | 334 | 0.0 | 0.0 | 0.00 | 0.00 | 0.00 | 79 | 1015.6 |
| 20260508044644 | 5 | 334 | 0.0 | 0.0 | 0.00 | 0.00 | 0.00 | 79 | 1015.5 |
| 20260508044140 | 5 | 335 | 0.0 | 0.0 | 0.00 | 0.00 | 0.00 | 80 | 1015.6 |
| 20260508043636 | 5 | 335 | 0.0 | 0.0 | 0.00 | 0.00 | 0.00 | 79 | 1015.4 |
| 20260508043135 | 5 | 335 | 0.0 | 0.0 | 0.00 | 0.00 | 0.00 | 79 | 1015.7 |
| 20260508042631 | 5 | 335 | 0.0 | 0.0 | 0.00 | 0.00 | 0.00 | 80 | 1015.6 |
| 20260508042128 | 5 | 335 | 0.0 | 0.0 | 0.00 | 0.00 | 0.00 | 81 | 1015.5 |
| 20260508041624 | 5 | 320 | 0.0 | 0.0 | 0.00 | 0.00 | 0.00 | 80 | 1015.7 |
| 20260508041121 | 5 | 317 | 0.0 | 0.0 | 0.00 | 0.00 | 0.00 | 78 | 1015.7 |
| 20260508040618 | 6 | 317 | 0.0 | 0.0 | 0.00 | 0.00 | 0.00 | 76 | 1015.4 |
| 20260508040116 | 6 | 313 | 0.0 | 0.0 | 0.00 | 0.00 | 0.00 | 75 | 1015.6 |
| 20260508035612 | 6 | 313 | 0.0 | 0.0 | 0.00 | 0.03 | 0.03 | 72 | 1015.3 |
| 20260508035110 | 6 | 313 | 0.0 | 0.0 | 0.00 | 0.03 | 0.03 | 72 | 1015.2 |
| 20260508034606 | 6 | 313 | 0.0 | 0.0 | 0.00 | 0.03 | 0.03 | 72 | 1015.3 |
| 20260508034103 | 6 | 313 | 0.0 | 0.0 | 0.00 | 0.03 | 0.03 | 71 | 1015.4 |
| 20260508033601 | 7 | 313 | 0.0 | 0.0 | 0.00 | 0.03 | 0.03 | 71 | 1015.2 |
| 20260508033059 | 7 | 313 | 0.0 | 0.0 | 0.00 | 0.03 | 0.03 | 71 | 1015.2 |
| 20260508032555 | 7 | 313 | 0.0 | 0.0 | 0.00 | 0.03 | 0.03 | 72 | 1015.2 |
| 20260508032053 | 7 | 313 | 0.0 | 0.0 | 0.00 | 0.03 | 0.03 | 72 | 1015.3 |
| 20260508031550 | 7 | 313 | 0.0 | 0.0 | 0.00 | 0.03 | 0.03 | 71 | 1015.1 |
| 20260508031046 | 7 | 313 | 0.0 | 0.0 | 0.00 | 0.03 | 0.03 | 69 | 1015.4 |
| 20260508030542 | 7 | 313 | 0.0 | 0.0 | 0.00 | 0.03 | 0.03 | 69 | 1015.3 |
| 20260508030041 | 7 | 313 | 0.0 | 0.0 | 0.00 | 0.03 | 0.03 | 69 | 1015.1 |
| 20260508025536 | 7 | 313 | 0.0 | 0.0 | 0.00 | 0.03 | 0.03 | 72 | 1014.7 |
| 20260508025034 | 7 | 311 | 0.0 | 0.0 | 0.00 | 0.03 | 0.03 | 72 | 1015.1 |
| 20260508024529 | 7 | 314 | 0.0 | 0.0 | 0.00 | 0.03 | 0.03 | 72 | 1014.9 |
| 20260508024027 | 7 | 323 | 0.0 | 0.0 | 0.00 | 0.03 | 0.03 | 72 | 1015.0 |
| 20260508023523 | 7 | 323 | 0.0 | 0.0 | 0.00 | 0.03 | 0.03 | 71 | 1015.0 |
| 20260508023021 | 7 | 323 | 0.0 | 0.0 | 0.00 | 0.03 | 0.03 | 71 | 1014.7 |
| 20260508022516 | 7 | 323 | 0.0 | 0.0 | 0.00 | 0.03 | 0.03 | 72 | 1014.7 |
| 20260508022013 | 7 | 325 | 0.0 | 0.0 | 0.00 | 0.03 | 0.03 | 72 | 1014.6 |
| 20260508021509 | 8 | 325 | 0.0 | 0.0 | 0.00 | 0.03 | 0.03 | 73 | 1014.5 |
| 20260508021005 | 8 | 324 | 0.0 | 0.0 | 0.00 | 0.03 | 0.03 | 71 | 1014.6 |
| 20260508020503 | 8 | 323 | 0.0 | 0.0 | 0.00 | 0.03 | 0.03 | 71 | 1014.3 |
| 20260508020000 | 8 | 331 | 0.0 | 0.0 | 0.00 | 0.03 | 0.03 | 70 | 1014.6 |
| 20260508015458 | 8 | 335 | 0.0 | 0.0 | 0.00 | 0.03 | 0.03 | 70 | 1014.2 |
| 20260508014954 | 8 | 335 | 0.0 | 0.0 | 0.00 | 0.03 | 0.03 | 70 | 1014.2 |
| 20260508014451 | 8 | 334 | 0.0 | 0.0 | 0.00 | 0.03 | 0.03 | 69 | 1014.2 |
| 20260508013947 | 8 | 310 | 0.0 | 0.0 | 0.00 | 0.03 | 0.03 | 69 | 1014.2 |
| 20260508013443 | 9 | 327 | 0.0 | 0.0 | 0.00 | 0.03 | 0.03 | 69 | 1014.0 |
| 20260508012941 | 9 | 327 | 0.0 | 0.0 | 0.00 | 0.03 | 0.03 | 68 | 1014.0 |
| 20260508012437 | 9 | 327 | 0.0 | 0.0 | 0.00 | 0.03 | 0.03 | 68 | 1013.9 |
| 20260508011935 | 9 | 327 | 0.0 | 0.0 | 0.00 | 0.03 | 0.03 | 69 | 1013.8 |
| 20260508011434 | 9 | 327 | 0.0 | 0.0 | 0.00 | 0.03 | 0.03 | 68 | 1014.0 |
| 20260508010930 | 9 | 338 | 1.6 | 1.6 | 0.00 | 0.03 | 0.03 | 69 | 1013.6 |
| 20260508010427 | 9 | 339 | 0.0 | 0.0 | 0.00 | 0.03 | 0.03 | 68 | 1013.6 |
| 20260508005924 | 10 | 339 | 0.0 | 0.0 | 0.00 | 0.03 | 0.03 | 68 | 1013.6 |
| 20260508005421 | 10 | 339 | 0.0 | 0.0 | 0.00 | 0.03 | 0.03 | 67 | 1013.7 |
| 20260508004917 | 10 | 335 | 0.0 | 0.0 | 0.00 | 0.03 | 0.03 | 66 | 1013.6 |
| 20260508004413 | 10 | 334 | 0.0 | 0.0 | 0.00 | 0.03 | 0.03 | 65 | 1013.8 |
| 20260508003910 | 10 | 334 | 0.0 | 1.6 | 0.00 | 0.03 | 0.03 | 65 | 1013.6 |
| 20260508003407 | 10 | 335 | 0.0 | 0.0 | 0.00 | 0.03 | 0.03 | 65 | 1013.5 |
| 20260508002904 | 10 | 330 | 0.0 | 0.0 | 0.00 | 0.03 | 0.03 | 64 | 1013.6 |
| 20260508002400 | 10 | 329 | 1.6 | 1.6 | 0.00 | 0.03 | 0.03 | 63 | 1013.5 |
| 20260508001857 | 11 | 335 | 1.6 | 1.6 | 0.00 | 0.03 | 0.03 | 62 | 1013.3 |
| 20260508001353 | 11 | 330 | 1.6 | 1.6 | 0.00 | 0.03 | 0.03 | 63 | 1013.1 |
| 20260508000849 | 11 | 337 | 1.6 | 3.2 | 0.00 | 0.03 | 0.03 | 62 | 1013.3 |
| 20260508000346 | 11 | 326 | 1.6 | 3.2 | 0.00 | 0.03 | 0.03 | 63 | 1013.2 |
| 20260507235842 | 11 | 323 | 0.0 | 1.6 | 0.00 | 0.03 | 0.03 | 63 | 1013.1 |
| 20260507235340 | 11 | 328 | 4.8 | 8.0 | 0.00 | 0.03 | 0.03 | 60 | 1013.1 |
| 20260507234837 | 11 | 338 | 4.8 | 8.0 | 0.00 | 0.03 | 0.03 | 60 | 1013.3 |
| 20260507234333 | 11 | 329 | 1.6 | 1.6 | 0.00 | 0.03 | 0.03 | 62 | 1013.1 |
| 20260507233830 | 11 | 275 | 4.8 | 4.8 | 0.00 | 0.03 | 0.03 | 61 | 1013.1 |
| 20260507233328 | 12 | 346 | 3.2 | 3.2 | 0.00 | 0.03 | 0.03 | 60 | 1012.9 |
| 20260507232826 | 12 | 336 | 1.6 | 3.2 | 0.00 | 0.03 | 0.03 | 59 | 1013.2 |
| 20260507232322 | 12 | 326 | 9.7 | 14.5 | 0.00 | 0.03 | 0.03 | 59 | 1012.7 |
| 20260507231819 | 12 | 344 | 3.2 | 4.8 | 0.00 | 0.03 | 0.03 | 60 | 1013.2 |
| 20260507231316 | 12 | 339 | 3.2 | 3.2 | 0.00 | 0.03 | 0.03 | 59 | 1013.1 |
| 20260507230812 | 12 | 297 | 4.8 | 4.8 | 0.00 | 0.03 | 0.03 | 60 | 1012.9 |
| 20260507230310 | 11 | 342 | 4.8 | 8.0 | 0.00 | 0.03 | 0.03 | 62 | 1013.2 |
| 20260507225810 | 12 | 334 | 3.2 | 4.8 | 0.00 | 0.03 | 0.03 | 62 | 1012.7 |
| 20260507225306 | 12 | 338 | 1.6 | 1.6 | 0.00 | 0.03 | 0.03 | 61 | 1012.8 |
| 20260507224802 | 12 | 312 | 4.8 | 4.8 | 0.00 | 0.03 | 0.03 | 61 | 1012.5 |
| 20260507224259 | 12 | 277 | 4.8 | 4.8 | 0.00 | 0.03 | 0.03 | 63 | 1012.6 |
| 20260507223755 | 12 | 306 | 4.8 | 4.8 | 0.00 | 0.03 | 0.03 | 63 | 1012.7 |
| 20260507223251 | 12 | 306 | 3.2 | 4.8 | 0.00 | 0.03 | 0.03 | 60 | 1012.5 |
| 20260507222749 | 12 | 318 | 4.8 | 4.8 | 0.00 | 0.03 | 0.03 | 61 | 1012.7 |
| 20260507222245 | 12 | 27 | 4.8 | 4.8 | 0.00 | 0.03 | 0.03 | 62 | 1012.5 |
| 20260507221742 | 13 | 309 | 4.8 | 4.8 | 0.00 | 0.03 | 0.03 | 63 | 1012.3 |
| 20260507221238 | 13 | 318 | 6.4 | 8.0 | 0.00 | 0.03 | 0.03 | 59 | 1012.4 |
| 20260507220735 | 13 | 327 | 4.8 | 4.8 | 0.00 | 0.03 | 0.03 | 63 | 1012.3 |
| 20260507220233 | 13 | 331 | 3.2 | 3.2 | 0.00 | 0.03 | 0.03 | 61 | 1012.3 |
| 20260507215729 | 13 | 33 | 4.8 | 4.8 | 0.00 | 0.03 | 0.03 | 61 | 1012.5 |
| 20260507215227 | 12 | 343 | 0.0 | 1.6 | 0.00 | 0.03 | 0.03 | 63 | 1012.2 |
| 20260507214724 | 12 | 332 | 4.8 | 4.8 | 0.00 | 0.03 | 0.03 | 63 | 1012.0 |
| 20260507214221 | 12 | 297 | 4.8 | 4.8 | 0.00 | 0.03 | 0.03 | 64 | 1012.3 |
| 20260507213716 | 12 | 302 | 4.8 | 8.0 | 0.00 | 0.03 | 0.03 | 63 | 1012.3 |
| 20260507213213 | 13 | 345 | 1.6 | 1.6 | 0.00 | 0.03 | 0.03 | 61 | 1012.3 |
| 20260507212709 | 13 | 290 | 1.6 | 3.2 | 0.00 | 0.03 | 0.03 | 63 | 1012.1 |
| 20260507212206 | 13 | 326 | 9.7 | 12.9 | 0.00 | 0.03 | 0.03 | 59 | 1012.0 |
| 20260507211703 | 12 | 53 | 3.2 | 3.2 | 0.00 | 0.03 | 0.03 | 63 | 1011.8 |
| 20260507211158 | 13 | 302 | 3.2 | 4.8 | 0.00 | 0.03 | 0.03 | 62 | 1012.1 |
| 20260507210656 | 13 | 354 | 3.2 | 3.2 | 0.00 | 0.03 | 0.03 | 62 | 1011.9 |
| 20260507210153 | 12 | 337 | 4.8 | 4.8 | 0.00 | 0.03 | 0.03 | 63 | 1012.0 |
| 20260507205649 | 13 | 334 | 1.6 | 3.2 | 0.00 | 0.03 | 0.03 | 62 | 1011.8 |
| 20260507205146 | 13 | 325 | 1.6 | 1.6 | 0.00 | 0.03 | 0.03 | 64 | 1012.1 |
| 20260507204642 | 13 | 347 | 3.2 | 3.2 | 0.00 | 0.03 | 0.03 | 62 | 1012.0 |
| 20260507204140 | 12 | 328 | 3.2 | 4.8 | 0.00 | 0.03 | 0.03 | 64 | 1012.0 |
| 20260507203637 | 12 | 352 | 3.2 | 3.2 | 0.00 | 0.03 | 0.03 | 63 | 1011.7 |
| 20260507203135 | 12 | 325 | 4.8 | 4.8 | 0.00 | 0.03 | 0.03 | 63 | 1011.6 |
| 20260507202630 | 12 | 308 | 3.2 | 4.8 | 0.00 | 0.03 | 0.03 | 66 | 1011.9 |
| 20260507202127 | 12 | 349 | 3.2 | 3.2 | 0.00 | 0.03 | 0.03 | 66 | 1012.0 |
| 20260507201622 | 12 | 322 | 1.6 | 1.6 | 0.00 | 0.03 | 0.03 | 66 | 1011.9 |
| 20260507201119 | 12 | 337 | 1.6 | 3.2 | 0.00 | 0.03 | 0.03 | 66 | 1011.9 |
| 20260507200615 | 12 | 12 | 6.4 | 9.7 | 0.00 | 0.03 | 0.03 | 63 | 1012.2 |
| 20260507200111 | 12 | 330 | 4.8 | 4.8 | 0.00 | 0.03 | 0.03 | 63 | 1012.0 |
| 20260507195608 | 12 | 327 | 4.8 | 4.8 | 0.00 | 0.03 | 0.03 | 63 | 1012.1 |
| 20260507195106 | 12 | 327 | 1.6 | 3.2 | 0.00 | 0.03 | 0.03 | 65 | 1012.4 |
| 20260507194602 | 12 | 311 | 1.6 | 1.6 | 0.00 | 0.03 | 0.03 | 66 | 1012.3 |
| 20260507194057 | 12 | 311 | 1.6 | 3.2 | 0.00 | 0.03 | 0.03 | 65 | 1012.2 |
| 20260507193555 | 12 | 331 | 4.8 | 4.8 | 0.00 | 0.03 | 0.03 | 67 | 1012.3 |
| 20260507193052 | 12 | 286 | 4.8 | 8.0 | 0.00 | 0.03 | 0.03 | 64 | 1012.2 |
| 20260507192548 | 12 | 293 | 3.2 | 3.2 | 0.00 | 0.03 | 0.03 | 64 | 1012.3 |
| 20260507192045 | 12 | 344 | 6.4 | 11.3 | 0.00 | 0.03 | 0.03 | 67 | 1012.5 |
| 20260507191541 | 11 | 345 | 1.6 | 3.2 | 0.00 | 0.03 | 0.03 | 69 | 1012.5 |
| 20260507191038 | 11 | 332 | 1.6 | 1.6 | 0.00 | 0.03 | 0.03 | 69 | 1012.5 |
| 20260507190535 | 11 | 340 | 1.6 | 1.6 | 0.00 | 0.03 | 0.03 | 69 | 1012.5 |
| 20260507190034 | 11 | 337 | 1.6 | 1.6 | 0.00 | 0.03 | 0.03 | 70 | 1012.7 |
| 20260507185532 | 11 | 317 | 4.8 | 4.8 | 0.00 | 0.03 | 0.03 | 70 | 1012.7 |
| 20260507185028 | 11 | 282 | 6.4 | 8.0 | 0.00 | 0.03 | 0.03 | 68 | 1012.7 |
| 20260507184526 | 11 | 277 | 6.4 | 8.0 | 0.00 | 0.03 | 0.03 | 69 | 1012.8 |
| 20260507184024 | 11 | 319 | 0.0 | 1.6 | 0.00 | 0.03 | 0.03 | 71 | 1012.9 |
| 20260507183519 | 10 | 331 | 1.6 | 3.2 | 0.00 | 0.03 | 0.03 | 72 | 1013.1 |
| 20260507183017 | 10 | 316 | 4.8 | 4.8 | 0.00 | 0.03 | 0.03 | 73 | 1013.4 |
| 20260507182513 | 11 | 309 | 4.8 | 4.8 | 0.00 | 0.03 | 0.03 | 72 | 1013.2 |
| 20260507182009 | 11 | 352 | 4.8 | 4.8 | 0.00 | 0.03 | 0.03 | 72 | 1012.8 |
| 20260507181506 | 11 | 280 | 3.2 | 4.8 | 0.00 | 0.03 | 0.03 | 72 | 1012.8 |
| 20260507181002 | 11 | 356 | 4.8 | 4.8 | 0.00 | 0.03 | 0.03 | 71 | 1012.8 |
| 20260507180459 | 11 | 301 | 4.8 | 4.8 | 0.00 | 0.03 | 0.03 | 71 | 1012.9 |
| 20260507175955 | 11 | 345 | 6.4 | 8.0 | 0.00 | 0.03 | 0.03 | 70 | 1012.9 |
| 20260507175452 | 11 | 286 | 6.4 | 9.7 | 0.00 | 0.03 | 0.03 | 70 | 1012.6 |
| 20260507174949 | 11 | 337 | 1.6 | 3.2 | 0.00 | 0.03 | 0.03 | 69 | 1012.6 |
| 20260507174446 | 11 | 348 | 3.2 | 3.2 | 0.00 | 0.03 | 0.03 | 67 | 1012.8 |
| 20260507173943 | 11 | 359 | 3.2 | 3.2 | 0.00 | 0.03 | 0.03 | 67 | 1012.8 |
| 20260507173441 | 11 | 333 | 3.2 | 3.2 | 0.00 | 0.03 | 0.03 | 69 | 1013.1 |
| 20260507172937 | 11 | 290 | 6.4 | 8.0 | 0.00 | 0.03 | 0.03 | 67 | 1012.8 |
| 20260507172434 | 11 | 334 | 3.2 | 3.2 | 0.00 | 0.03 | 0.03 | 64 | 1013.1 |
| 20260507171931 | 11 | 326 | 3.2 | 3.2 | 0.00 | 0.03 | 0.03 | 63 | 1013.3 |
| 20260507171426 | 11 | 351 | 3.2 | 3.2 | 0.00 | 0.03 | 0.03 | 63 | 1013.1 |
| 20260507170924 | 12 | 334 | 3.2 | 3.2 | 0.00 | 0.03 | 0.03 | 64 | 1012.9 |
| 20260507170420 | 12 | 356 | 1.6 | 3.2 | 0.00 | 0.03 | 0.03 | 62 | 1013.1 |
| 20260507165917 | 11 | 341 | 1.6 | 1.6 | 0.00 | 0.03 | 0.03 | 64 | 1013.3 |
| 20260507165413 | 11 | 340 | 4.8 | 4.8 | 0.00 | 0.03 | 0.03 | 64 | 1013.1 |
| 20260507164909 | 10 | 359 | 0.0 | 1.6 | 0.00 | 0.03 | 0.03 | 65 | 1013.2 |
| 20260507164406 | 10 | 331 | 3.2 | 3.2 | 0.00 | 0.03 | 0.03 | 64 | 1013.2 |
| 20260507163903 | 10 | 346 | 4.8 | 4.8 | 0.00 | 0.03 | 0.03 | 64 | 1013.4 |
| 20260507163401 | 10 | 356 | 1.6 | 1.6 | 0.00 | 0.03 | 0.03 | 65 | 1013.3 |
| 20260507162857 | 11 | 335 | 3.2 | 3.2 | 0.00 | 0.03 | 0.03 | 66 | 1013.3 |
| 20260507162352 | 12 | 346 | 3.2 | 3.2 | 0.00 | 0.03 | 0.03 | 59 | 1013.4 |
| 20260507161850 | 11 | 349 | 3.2 | 3.2 | 0.00 | 0.03 | 0.03 | 62 | 1013.2 |
| 20260507161346 | 11 | 332 | 1.6 | 1.6 | 0.00 | 0.03 | 0.03 | 61 | 1013.1 |
| 20260507160843 | 10 | 341 | 0.0 | 0.0 | 0.00 | 0.03 | 0.03 | 65 | 1013.2 |
| 20260507160338 | 11 | 5 | 6.4 | 8.0 | 0.00 | 0.03 | 0.03 | 62 | 1013.6 |
| 20260507155835 | 10 | 96 | 4.8 | 4.8 | 0.00 | 0.03 | 0.03 | 63 | 1013.4 |
| 20260507155331 | 10 | 355 | 4.8 | 8.0 | 0.00 | 0.03 | 0.03 | 63 | 1013.4 |
| 20260507154828 | 10 | 11 | 3.2 | 3.2 | 0.00 | 0.03 | 0.03 | 63 | 1013.3 |
| 20260507154325 | 10 | 17 | 1.6 | 3.2 | 0.00 | 0.03 | 0.03 | 63 | 1013.5 |
| 20260507153822 | 10 | 73 | 3.2 | 3.2 | 0.00 | 0.03 | 0.03 | 65 | 1013.6 |
| 20260507153318 | 10 | 324 | 4.8 | 4.8 | 0.00 | 0.03 | 0.03 | 65 | 1013.4 |
| 20260507152815 | 10 | 15 | 1.6 | 3.2 | 0.00 | 0.03 | 0.03 | 69 | 1013.6 |
| 20260507152311 | 10 | 324 | 3.2 | 3.2 | 0.00 | 0.03 | 0.03 | 66 | 1013.4 |
| 20260507151807 | 10 | 329 | 1.6 | 1.6 | 0.00 | 0.03 | 0.03 | 66 | 1013.6 |
| 20260507151303 | 10 | 23 | 3.2 | 8.0 | 0.00 | 0.03 | 0.03 | 67 | 1013.3 |
| 20260507150801 | 10 | 25 | 1.6 | 1.6 | 0.00 | 0.03 | 0.03 | 65 | 1013.6 |
| 20260507150257 | 10 | 11 | 3.2 | 3.2 | 0.00 | 0.03 | 0.03 | 65 | 1013.7 |
| 20260507145753 | 10 | 8 | 1.6 | 1.6 | 0.00 | 0.03 | 0.03 | 66 | 1013.9 |
| 20260507145250 | 10 | 353 | 1.6 | 3.2 | 0.00 | 0.03 | 0.03 | 68 | 1013.8 |
| 20260507144747 | 9 | 113 | 3.2 | 3.2 | 0.00 | 0.03 | 0.03 | 67 | 1013.7 |
| 20260507144244 | 9 | 343 | 3.2 | 3.2 | 0.00 | 0.03 | 0.03 | 69 | 1013.7 |
| 20260507143741 | 8 | 1 | 1.6 | 1.6 | 0.00 | 0.03 | 0.03 | 72 | 1013.4 |
| 20260507143238 | 9 | 313 | 3.2 | 3.2 | 0.00 | 0.03 | 0.03 | 73 | 1013.6 |
| 20260507142734 | 8 | 28 | 1.6 | 1.6 | 0.00 | 0.03 | 0.03 | 72 | 1013.5 |
| 20260507142231 | 8 | 74 | 6.4 | 8.0 | 0.00 | 0.03 | 0.03 | 73 | 1013.5 |
| 20260507141727 | 8 | 63 | 1.6 | 3.2 | 0.00 | 0.03 | 0.03 | 76 | 1013.7 |
| 20260507141224 | 8 | 354 | 0.0 | 1.6 | 0.00 | 0.03 | 0.03 | 78 | 1013.6 |
| 20260507140720 | 8 | 347 | 6.4 | 9.7 | 0.00 | 0.03 | 0.03 | 79 | 1013.9 |
| 20260507140218 | 8 | 314 | 1.6 | 1.6 | 0.00 | 0.03 | 0.03 | 81 | 1013.9 |
| 20260507135715 | 8 | 358 | 3.2 | 3.2 | 0.00 | 0.03 | 0.03 | 82 | 1014.0 |
| 20260507135212 | 8 | 340 | 3.2 | 4.8 | 0.00 | 0.03 | 0.03 | 84 | 1013.8 |
| 20260507134708 | 8 | 337 | 1.6 | 1.6 | 0.00 | 0.03 | 0.03 | 84 | 1013.8 |
| 20260507134205 | 7 | 352 | 3.2 | 3.2 | 0.00 | 0.03 | 0.03 | 84 | 1014.0 |
| 20260507133700 | 7 | 334 | 0.0 | 0.0 | 0.00 | 0.03 | 0.03 | 84 | 1014.1 |
| 20260507133158 | 7 | 329 | 0.0 | 1.6 | 0.00 | 0.03 | 0.03 | 85 | 1014.1 |
| 20260507132655 | 7 | 14 | 1.6 | 1.6 | 0.00 | 0.03 | 0.03 | 87 | 1014.1 |
| 20260507132151 | 7 | 343 | 1.6 | 1.6 | 0.00 | 0.03 | 0.03 | 86 | 1014.3 |
| 20260507131648 | 7 | 356 | 0.0 | 1.6 | 0.00 | 0.03 | 0.03 | 88 | 1013.9 |
| 20260507131146 | 7 | 328 | 1.6 | 3.2 | 0.00 | 0.03 | 0.03 | 89 | 1014.0 |
| 20260507130642 | 7 | 11 | 0.0 | 0.0 | 0.00 | 0.03 | 0.03 | 89 | 1014.0 |
| 20260507130140 | 7 | 337 | 1.6 | 1.6 | 0.00 | 0.03 | 0.03 | 89 | 1014.1 |
| 20260507125639 | 7 | 349 | 0.0 | 0.0 | 0.00 | 0.03 | 0.03 | 89 | 1014.0 |
| 20260507125136 | 7 | 358 | 0.0 | 0.0 | 0.00 | 0.03 | 0.03 | 90 | 1013.8 |
| 20260507124632 | 7 | 353 | 0.0 | 0.0 | 0.00 | 0.03 | 0.03 | 89 | 1014.2 |
| 20260507124130 | 7 | 15 | 1.6 | 1.6 | 0.00 | 0.03 | 0.03 | 89 | 1014.5 |
| 20260507123628 | 7 | 324 | 1.6 | 1.6 | 0.00 | 0.03 | 0.03 | 90 | 1014.5 |
| 20260507123125 | 7 | 335 | 0.0 | 0.0 | 0.00 | 0.03 | 0.03 | 90 | 1014.2 |
| 20260507122620 | 7 | 341 | 0.0 | 0.0 | 0.00 | 0.03 | 0.03 | 90 | 1014.0 |
| 20260507122116 | 6 | 349 | 1.6 | 1.6 | 0.00 | 0.03 | 0.03 | 90 | 1014.1 |
| 20260507121612 | 7 | 342 | 0.0 | 1.6 | 0.00 | 0.03 | 0.03 | 91 | 1014.0 |
| 20260507121108 | 7 | 332 | 0.0 | 0.0 | 0.00 | 0.03 | 0.03 | 91 | 1013.9 |
| 20260507120604 | 6 | 332 | 0.0 | 0.0 | 0.00 | 0.03 | 0.03 | 91 | 1013.9 |
| 20260507115557 | 6 | 345 | 1.6 | 1.6 | 0.00 | 0.03 | 0.03 | 92 | 1014.0 |
| 20260507115053 | 6 | 325 | 0.0 | 1.6 | 0.00 | 0.03 | 0.03 | 93 | 1013.9 |
| 20260507114549 | 6 | 358 | 0.0 | 1.6 | 0.00 | 0.03 | 0.03 | 92 | 1014.0 |
| 20260507114047 | 6 | 21 | 3.2 | 3.2 | 0.00 | 0.03 | 0.03 | 93 | 1013.8 |
| 20260507113543 | 6 | 3 | 1.6 | 1.6 | 0.00 | 0.03 | 0.03 | 93 | 1014.0 |
| 20260507113041 | 6 | 350 | 0.0 | 0.0 | 0.00 | 0.03 | 0.03 | 94 | 1013.7 |
| 20260507112539 | 6 | 325 | 0.0 | 0.0 | 0.00 | 0.03 | 0.03 | 95 | 1013.8 |
| 20260507112035 | 6 | 324 | 0.0 | 0.0 | 0.00 | 0.03 | 0.03 | 95 | 1013.8 |